TimeEST,TemperatureF,Dew PointF,Humidity,Sea Level PressureIn,VisibilityMPH,Wind Direction,Wind SpeedMPH,Gust SpeedMPH,PrecipitationIn,Events,Conditions,WindDirDegrees,DateUTC
12:51 AM,57.9,53.1,84,30.10,10.0,South,9.2,-,N/A,,Mostly Cloudy,170,2012-12-04 05:51:00
1:51 AM,57.0,52.0,83,30.10,10.0,South,8.1,-,N/A,,Scattered Clouds,180,2012-12-04 06:51:00
2:51 AM,59.0,51.1,75,30.10,10.0,South,11.5,-,N/A,,Overcast,190,2012-12-04 07:51:00
3:51 AM,57.9,51.1,78,30.09,10.0,South,10.4,-,N/A,,Mostly Cloudy,190,2012-12-04 08:51:00
4:51 AM,57.9,50.0,75,30.08,10.0,South,12.7,-,N/A,,Scattered Clouds,180,2012-12-04 09:51:00
5:51 AM,57.0,48.9,74,30.07,10.0,South,11.5,-,N/A,,Clear,190,2012-12-04 10:51:00
6:51 AM,57.9,50.0,75,30.08,10.0,South,11.5,-,N/A,,Overcast,190,2012-12-04 11:51:00
7:51 AM,57.9,50.0,75,30.08,10.0,South,9.2,-,N/A,,Overcast,190,2012-12-04 12:51:00
8:51 AM,59.0,51.1,75,30.08,10.0,South,8.1,-,N/A,,Overcast,180,2012-12-04 13:51:00
9:51 AM,60.8,51.8,72,30.08,10.0,South,12.7,-,N/A,,Overcast,180,2012-12-04 14:51:00
10:51 AM,61.0,52.0,72,30.08,10.0,SSW,11.5,-,N/A,,Overcast,200,2012-12-04 15:51:00
11:51 AM,62.1,55.0,78,30.05,10.0,South,17.3,24.2,N/A,,Overcast,190,2012-12-04 16:51:00
12:25 PM,62.6,55.4,77,30.03,10.0,SSW,19.6,26.5,N/A,,Overcast,200,2012-12-04 17:25:00
12:51 PM,62.1,55.9,80,30.03,10.0,SSW,16.1,23.0,N/A,,Overcast,200,2012-12-04 17:51:00
1:51 PM,63.0,57.0,81,30.00,10.0,SSW,15.0,-,0.00,,Overcast,200,2012-12-04 18:51:00
2:51 PM,62.1,57.0,84,29.99,10.0,South,13.8,-,N/A,,Overcast,190,2012-12-04 19:51:00
3:39 PM,60.8,57.2,88,29.99,5.0,SSW,17.3,23.0,0.08,Rain,Light Rain,210,2012-12-04 20:39:00
3:51 PM,61.0,57.9,90,29.99,7.0,SSW,13.8,23.0,0.09,Rain,Light Rain,210,2012-12-04 20:51:00
4:46 PM,55.4,53.6,94,30.01,2.5,NNW,18.4,24.2,0.01,Rain,Rain,330,2012-12-04 21:46:00
4:51 PM,55.0,53.1,93,30.02,4.0,NNW,16.1,24.2,0.15,Rain,Rain,340,2012-12-04 21:51:00
4:53 PM,55.4,53.6,94,30.02,4.0,NNW,17.3,-,0.01,Rain,Rain,340,2012-12-04 21:53:00
4:57 PM,53.6,51.8,94,30.02,4.0,NNW,15.0,-,0.02,Rain,Rain,340,2012-12-04 21:57:00
5:21 PM,51.8,51.8,100,30.05,2.5,NNW,20.7,24.2,0.13,Rain,Heavy Rain,330,2012-12-04 22:21:00
5:31 PM,50.0,48.2,94,30.07,4.0,NW,19.6,29.9,0.24,Rain,Heavy Rain,320,2012-12-04 22:31:00
5:51 PM,48.0,45.0,89,30.07,4.0,NNW,16.1,25.3,0.30,Rain,Rain,330,2012-12-04 22:51:00
6:08 PM,46.4,44.6,93,30.08,9.0,NNW,13.8,-,0.01,Rain,Light Rain,340,2012-12-04 23:08:00
6:51 PM,46.0,42.1,86,30.12,10.0,NNW,13.8,-,0.03,Rain,Light Rain,340,2012-12-04 23:51:00
7:51 PM,45.0,43.0,93,30.13,10.0,NNW,4.6,-,0.07,Rain,Light Rain,340,2012-12-05 00:51:00
8:51 PM,46.0,43.0,89,30.15,10.0,WSW,3.5,-,0.00,Rain,Light Rain,240,2012-12-05 01:51:00
9:51 PM,45.0,43.0,93,30.16,10.0,SSW,3.5,-,0.00,,Overcast,210,2012-12-05 02:51:00
10:51 PM,43.0,42.1,97,30.17,10.0,South,3.5,-,N/A,,Partly Cloudy,180,2012-12-05 03:51:00
11:51 PM,42.8,41.0,93,30.18,10.0,South,4.6,-,N/A,,Scattered Clouds,170,2012-12-05 04:51:00